Regional Weather Roundup
Issued by NWS

Home | Current Version | Previous Version | Graphics & Text | Print | Product List | Glossary On
Versions: 1 2 3 4 5 6 7 8 9 10 11 12 13 14 15 16 17 18 19 20 21 22 23 24 25 26 27 28 29 30 31 32 33 34 35 36 37 38 39 40 41 42 43 44 45 46 47 48 49 50
000
ASUS43 KOAX 010302
RWRNE

WEATHER ROUNDUP FOR NEBRASKA
NATIONAL WEATHER SERVICE OMAHA NE
900 PM CST SAT JAN 31 2015

NOTES: SATELLITE DATA IS BEING USED TO AUGMENT CLOUD COVER ABOVE
       12000 FEET.
       "FAIR" INDICATES FEW OR NO CLOUDS BELOW 12,000 FEET WITH NO
       SIGNIFICANT WEATHER AND/OR OBSTRUCTIONS TO VISIBILITY.

  * THESE STATIONS DO NOT REPORT WEATHER SUCH AS RAIN...SNOW OR FOG.

NEZ001>004-019>022-054>056-010400-
NEBRASKA PANHANDLE

CITY           SKY/WX    TMP DP  RH WIND       PRES   REMARKS
SCOTTSBLUFF    LGT SNOW  27  25  92 N14       29.95R FOG     WCI  16
ALLIANCE       CLOUDY    20  17  88 N17       29.94R WCI   5
CHADRON        CLOUDY    21  19  92 NE14      30.02R FOG     WCI   8
SIDNEY         CLOUDY    26  23  88 NE16      29.89R WCI  14
$$

NEZ057>060-069>072-079>082-010400-
SOUTHWEST NEBRASKA

CITY           SKY/WX    TMP DP  RH WIND       PRES   REMARKS
NORTH PLATTE   LGT SNOW  25  21  85 N21G26    29.88R FOG     WCI  11
IMPERIAL       LGT SNOW  28  24  85 N21       29.86R FOG     WCI  15
MCCOOK         LGT SNOW  33  31  92 N8        29.83F FOG     WCI  26
$$

NEZ005>010-023>029-035>040-094-010400-
NORTH CENTRAL NEBRASKA

CITY           SKY/WX    TMP DP  RH WIND       PRES   REMARKS
VALENTINE      LGT SNOW  17  14  88 N13       30.02S VSB 1   WCI   4
BROKEN BOW     LGT SNOW  24  21  88 N23G30    29.88R VSB 1   WCI   9
ORD            LGT SNOW  26  23  88 N16       29.89R FOG     WCI  14
$$

NEZ041-046>049-061>064-073>077-083>087-010400-
SOUTH CENTRAL NEBRASKA

CITY           SKY/WX    TMP DP  RH WIND       PRES   REMARKS
GRAND ISLAND   LGT SNOW  31  30  96 NE6       29.85F VSB 3/4 WCI  25
HASTINGS       LGT SNOW  32  30  92 NE6       29.82F VSB 1   WCI  26
KEARNEY *      CLOUDY    30  28  93 N9        29.84S WCI  22
$$

NEZ011>018-030>034-042>045-010400-
NORTHEAST NEBRASKA

CITY           SKY/WX    TMP DP  RH WIND       PRES   REMARKS
NORFOLK        LGT SNOW  32  31  96 NE8       29.89F FOG     WCI  25
TEKAMAH        LGT SNOW  33  32  96 NE7       29.93F VSB 1   WCI  27
$$

NEZ050>053-065>068-078-088>093-010400-
SOUTHEAST NEBRASKA

CITY           SKY/WX    TMP DP  RH WIND       PRES   REMARKS
LINCOLN        LGT SNOW  33  32  96 E3        29.89F VSB 1
OMAHA EPPLEY   LGT SNOW  33  32  96 CALM      29.92F VSB 1
FALLS CITY     LGT SNOW  32  32 100 SE7       29.90F FOG     WCI  26
$$

NEZ044-045-051>053-067-010400-
OMAHA AREA

CITY           SKY/WX    TMP DP  RH WIND       PRES   REMARKS
OMAHA EPPLEY   LGT SNOW  33  32  96 CALM      29.92F VSB 1
$$


USA.gov is the U.S. government's official web portal to all federal, state and local government web resources and services.